Flag for Norway Weather past 2 weeks in Harstad, Norway

Now
59 °F

Sunny.


Feels Like: 58 °F
Forecast: 48 / 55 °F
Wind: 8 mph from Northwest

Location: Evenes

Current Time: Aug 28, 2014 at 5:22:48 PM

Latest Report: Aug 28, 2014 at 4:50 PM


Visibility: 10 mi

Pressure: 30.07 "Hg

Humidity: 63%

Dew point: 46 °F

Location of HarstadLocation

Historic Weather in Harstad — Graph

°F

Harstad temperature yesterday

Maximum temperature yesterday: 55 °F (at 3:50 PM)
Minimum temperature yesterday: 48 °F (at 12:50 AM)
Average temperature yesterday: 50 °F

Past Weeks' High & Low Weather Summary

 TemperatureHumidityPressure
High64 °F (Aug 24, 12:50 PM)100% (Aug 13, 11:50 PM)30.07 "Hg (Aug 13, 11:50 PM)
Low41 °F (Aug 18, 4:20 AM)48% (Aug 21, 12:50 PM)29.39 "Hg (Aug 13, 3:50 PM)
Average52 °F81%29.67 "Hg
* Reported Aug 13 3:50 PM — Aug 28 3:50 PM, Harstad, Weather by CustomWeather, © 2014

Note: Actual official high and low records may vary slightly from our data, if they occured in-between our weather recording intervals... More about our weather records

Advertising

Harstad weather history for previous 24 hours

 ConditionsComfort  
Time TempWeatherWind HumidityBarometerVisibility
3:50 PM
Aug 28
59 °FPassing clouds.8 mph63%30.07 "HgN/A
2:50 PM59 °FPassing clouds.7 mph63%30.07 "HgN/A
1:50 PM59 °FScattered clouds.7 mph63%30.07 "HgN/A
12:50 PM59 °FScattered clouds.7 mph68%30.07 "HgN/A
11:50 AM55 °FPartly sunny.6 mph77%30.07 "HgN/A
10:50 AM54 °FPartly sunny.6 mph77%30.04 "HgN/A
9:50 AM54 °FPartly sunny.6 mph77%30.04 "HgN/A
8:50 AM55 °FScattered clouds.3 mph77%30.04 "HgN/A
8:20 AM54 °FScattered clouds.2 mph77%30.04 "HgN/A
7:50 AM48 °FBroken clouds.1 mph94%30.04 "HgN/A
6:50 AM46 °FBroken clouds.2 mph93%30.04 "HgN/A
6:20 AM45 °FBroken clouds.1 mph93%30.04 "HgN/A
5:50 AM45 °FPartly cloudy.No wind93%30.04 "HgN/A
12:50 AM50 °FPassing clouds.6 mph88%30.01 "HgN/A
11:50 PM
Aug 27
50 °FPassing clouds.5 mph94%30.01 "HgN/A
10:50 PM50 °FPassing clouds.3 mph88%29.98 "HgN/A
9:50 PM50 °FBroken clouds.7 mph94%29.98 "HgN/A
8:50 PM50 °FScattered showers. Partly sunny.6 mph82%29.98 "HgN/A
7:50 PM52 °FPartly sunny.7 mph77%29.98 "HgN/A
6:50 PM52 °FPartly sunny.8 mph77%29.95 "HgN/A
5:50 PM52 °FPartly sunny.8 mph77%29.95 "HgN/A
Weather by CustomWeather, © 2014

See weather overviewHow to use our weather pages